�������l�o���
Date,Time,MP-1(��Sv/h),MP-2(��Sv/h),MP-3(��Sv/h),MP-4(��Sv/h),MP-5(��Sv/h),MP-6(��Sv/h),MP-7(��Sv/h),MP-8(��Sv/h),����,����(m/s),���J
2024/06/12,00:00,0.509,0.784,0.492,0.967,0.712,0.319,0.556,0.513,��,4.9,��
2024/06/12,00:10,0.510,0.784,0.493,0.971,0.712,0.320,0.557,0.512,��쐼,4.8,��
2024/06/12,00:20,0.511,0.782,0.492,0.970,0.712,0.320,0.557,0.512,��쐼,4.8,��
2024/06/12,00:30,0.510,0.783,0.492,0.968,0.712,0.320,0.557,0.510,��,5.3,��
2024/06/12,00:40,0.511,0.784,0.491,0.968,0.709,0.321,0.556,0.513,��쐼,4.9,��
2024/06/12,00:50,0.510,0.783,0.491,0.969,0.712,0.320,0.557,0.512,��쐼,4.7,��
2024/06/12,01:00,0.512,0.784,0.491,0.969,0.712,0.319,0.558,0.512,��쐼,4.3,��
2024/06/12,01:10,0.512,0.782,0.491,0.968,0.712,0.318,0.557,0.512,��,4.7,��
2024/06/12,01:20,0.511,0.785,0.491,0.968,0.710,0.318,0.559,0.512,��쐼,4.3,��
2024/06/12,01:30,0.511,0.781,0.491,0.969,0.711,0.319,0.557,0.512,��,4.1,��
2024/06/12,01:40,0.512,0.784,0.491,0.969,0.713,0.320,0.559,0.513,��쐼,3.1,��
2024/06/12,01:50,0.510,0.783,0.491,0.967,0.711,0.319,0.560,0.513,��,3.4,��
2024/06/12,02:00,0.510,0.783,0.490,0.969,0.711,0.319,0.558,0.512,��,4.0,��
2024/06/12,02:10,0.510,0.783,0.491,0.968,0.711,0.319,0.560,0.513,��,3.5,��
2024/06/12,02:20,0.512,0.783,0.491,0.967,0.713,0.319,0.560,0.511,��,3.2,��
2024/06/12,02:30,0.509,0.785,0.491,0.967,0.711,0.319,0.559,0.512,��,2.8,��
2024/06/12,02:40,0.510,0.783,0.491,0.969,0.710,0.320,0.559,0.513,��,3.4,��
2024/06/12,02:50,0.510,0.781,0.491,0.967,0.713,0.319,0.559,0.511,��,3.5,��
2024/06/12,03:00,0.512,0.783,0.491,0.967,0.712,0.319,0.559,0.511,��,4.6,��
2024/06/12,03:10,0.511,0.781,0.491,0.967,0.710,0.318,0.558,0.512,��쐼,2.6,��
2024/06/12,03:20,0.512,0.783,0.491,0.969,0.711,0.319,0.560,0.510,��,2.3,��
2024/06/12,03:30,0.511,0.783,0.491,0.970,0.711,0.318,0.557,0.512,��쐼,2.9,��
2024/06/12,03:40,0.511,0.783,0.492,0.969,0.711,0.320,0.559,0.513,��,3.7,��
2024/06/12,03:50,0.513,0.782,0.491,0.970,0.710,0.318,0.559,0.511,��,3.7,��
2024/06/12,04:00,0.511,0.783,0.492,0.969,0.714,0.319,0.559,0.512,��,3.6,��
2024/06/12,04:10,0.510,0.784,0.492,0.967,0.713,0.318,0.558,0.512,��,3.0,��
2024/06/12,04:20,0.512,0.781,0.491,0.969,0.710,0.320,0.558,0.510,��,3.0,��
2024/06/12,04:30,0.511,0.782,0.490,0.967,0.710,0.318,0.559,0.511,��,3.3,��
2024/06/12,04:40,0.511,0.783,0.491,0.969,0.710,0.318,0.558,0.512,��,3.5,��
2024/06/12,04:50,0.510,0.782,0.491,0.969,0.711,0.320,0.560,0.511,��,4.1,��
2024/06/12,05:00,0.510,0.781,0.493,0.968,0.712,0.319,0.558,0.511,��,4.7,��
2024/06/12,05:10,0.511,0.781,0.490,0.967,0.711,0.319,0.559,0.510,��,4.5,��
2024/06/12,05:20,0.511,0.783,0.492,0.968,0.713,0.318,0.559,0.513,��,4.5,��
2024/06/12,05:30,0.512,0.782,0.491,0.968,0.713,0.320,0.558,0.512,��쐼,4.8,��
2024/06/12,05:40,0.510,0.784,0.492,0.966,0.712,0.319,0.560,0.512,��,3.8,��
2024/06/12,05:50,0.511,0.783,0.491,0.969,0.712,0.320,0.560,0.511,��,3.8,��
2024/06/12,06:00,0.511,0.783,0.491,0.968,0.714,0.318,0.560,0.512,��쐼,3.0,��
2024/06/12,06:10,0.509,0.782,0.489,0.969,0.714,0.320,0.561,0.511,��,3.9,��
2024/06/12,06:20,0.512,0.781,0.489,0.969,0.711,0.320,0.560,0.511,��,4.1,��
2024/06/12,06:30,0.511,0.780,0.490,0.971,0.710,0.319,0.560,0.511,��,3.8,��
2024/06/12,06:40,0.510,0.779,0.490,0.968,0.711,0.320,0.560,0.512,��,3.4,��
2024/06/12,06:50,0.510,0.780,0.493,0.968,0.712,0.319,0.559,0.513,��쐼,3.8,��
2024/06/12,07:00,0.508,0.779,0.493,0.969,0.710,0.320,0.561,0.514,��쐼,4.3,��
2024/06/12,07:10,0.510,0.779,0.493,0.968,0.710,0.320,0.559,0.512,��쐼,4.8,��
2024/06/12,07:20,0.510,0.781,0.493,0.971,0.711,0.318,0.560,0.513,��쐼,4.0,��
2024/06/12,07:30,0.509,0.781,0.492,0.969,0.709,0.317,0.560,0.510,��,4.3,��
2024/06/12,07:40,0.510,0.780,0.490,0.969,0.711,0.317,0.559,0.511,��쓌,3.8,��
2024/06/12,07:50,0.511,0.780,0.491,0.968,0.711,0.319,0.558,0.512,��,3.9,��
2024/06/12,08:00,0.510,0.783,0.492,0.969,0.710,0.319,0.558,0.509,��,3.9,��
2024/06/12,08:10,0.510,0.781,0.491,0.969,0.711,0.319,0.558,0.510,��,4.4,��
2024/06/12,08:20,0.510,0.781,0.492,0.970,0.711,0.319,0.559,0.509,��,4.5,��
2024/06/12,08:30,0.509,0.781,0.489,0.969,0.712,0.317,0.557,0.512,��,3.8,��
2024/06/12,08:40,0.510,0.782,0.491,0.968,0.710,0.319,0.558,0.511,��,4.1,��
2024/06/12,08:50,0.509,0.782,0.491,0.970,0.711,0.317,0.558,0.510,��쓌,4.7,��
2024/06/12,09:00,0.511,0.781,0.491,0.969,0.711,0.319,0.558,0.510,��쓌,5.1,��
2024/06/12,09:10,0.512,0.783,0.491,0.967,0.711,0.318,0.560,0.509,��쓌,6.1,��
2024/06/12,09:20,0.511,0.783,0.491,0.967,0.712,0.318,0.559,0.510,��쓌,6.7,��
2024/06/12,09:30,0.510,0.783,0.490,0.970,0.712,0.318,0.558,0.511,��쓌,6.3,��
2024/06/12,09:40,0.511,0.783,0.490,0.969,0.713,0.318,0.558,0.511,��쓌,6.6,��
2024/06/12,09:50,0.510,0.781,0.490,0.967,0.711,0.319,0.558,0.511,��쓌,8.0,��
2024/06/12,10:00,0.510,0.781,0.491,0.969,0.714,0.318,0.560,0.510,��,8.4,��
2024/06/12,10:10,0.511,0.783,0.492,0.970,0.712,0.319,0.560,0.512,��,7.6,��
2024/06/12,10:20,0.512,0.782,0.490,0.970,0.710,0.318,0.560,0.510,��,9.4,��
2024/06/12,10:30,0.511,0.783,0.489,0.969,0.713,0.319,0.560,0.513,��,11.6,��
2024/06/12,10:40,0.510,0.781,0.492,0.970,0.714,0.319,0.559,0.511,��쓌,10.3,��
2024/06/12,10:50,0.510,0.782,0.491,0.970,0.712,0.318,0.560,0.511,��,9.4,��
2024/06/12,11:00,0.512,0.782,0.492,0.973,0.714,0.320,0.561,0.511,��,9.6,��
2024/06/12,11:10,0.511,0.782,0.491,0.971,0.712,0.319,0.559,0.511,��,8.5,��
2024/06/12,11:20,0.510,0.783,0.491,0.970,0.713,0.319,0.559,0.512,��,10.9,��
2024/06/12,11:30,0.512,0.784,0.491,0.969,0.715,0.319,0.559,0.510,��,9.9,��
2024/06/12,11:40,0.511,0.783,0.491,0.966,0.713,0.318,0.559,0.511,��,10.6,��
2024/06/12,11:50,0.511,0.785,0.492,0.968,0.713,0.318,0.559,0.512,��쓌,10.5,��
2024/06/12,12:00,0.511,0.785,0.489,0.969,0.713,0.319,0.557,0.511,��,9.5,��
2024/06/12,12:10,0.512,0.784,0.492,0.969,0.713,0.319,0.557,0.512,��쓌,12.4,��
2024/06/12,12:20,0.512,0.786,0.492,0.968,0.711,0.318,0.558,0.510,��,11.9,��
2024/06/12,12:30,0.513,0.784,0.492,0.969,0.713,0.318,0.557,0.511,��,12.4,��
2024/06/12,12:40,0.511,0.785,0.491,0.970,0.712,0.318,0.556,0.512,��,13.0,��
2024/06/12,12:50,0.511,0.784,0.493,0.969,0.712,0.317,0.557,0.512,��,11.6,��
2024/06/12,13:00,0.512,0.785,0.492,0.969,0.712,0.318,0.556,0.513,��,12.7,��
2024/06/12,13:10,0.511,0.783,0.492,0.969,0.713,0.318,0.557,0.511,��,12.4,��
2024/06/12,13:20,0.511,0.784,0.493,0.971,0.714,0.319,0.554,0.512,��,13.0,��
2024/06/12,13:30,0.512,0.784,0.493,0.969,0.716,0.319,0.558,0.513,��,13.3,��
2024/06/12,13:40,0.513,0.783,0.492,0.971,0.714,0.318,0.556,0.512,��쓌,14.1,��
2024/06/12,13:50,0.512,0.784,0.491,0.969,0.713,0.318,0.556,0.513,��쓌,13.3,��
2024/06/12,14:00,0.512,0.786,0.492,0.970,0.714,0.319,0.556,0.513,��쓌,13.0,��
2024/06/12,14:10,0.512,0.783,0.492,0.969,0.712,0.319,0.556,0.512,��,12.4,��
2024/06/12,14:20,0.513,0.784,0.490,0.971,0.713,0.320,0.558,0.512,��쓌,11.3,��
2024/06/12,14:30,0.511,0.783,0.493,0.971,0.715,0.319,0.554,0.511,��,12.2,��
2024/06/12,14:40,0.512,0.782,0.491,0.971,0.715,0.319,0.556,0.513,��,11.3,��
2024/06/12,14:50,0.512,0.784,0.493,0.972,0.715,0.318,0.556,0.513,��,10.9,��
2024/06/12,15:00,0.511,0.784,0.491,0.970,0.716,0.318,0.556,0.513,��,11.8,��
2024/06/12,15:10,0.513,0.784,0.491,0.970,0.715,0.319,0.556,0.512,��,11.9,��
2024/06/12,15:20,0.512,0.785,0.491,0.970,0.713,0.319,0.556,0.512,��,12.7,��
2024/06/12,15:30,0.512,0.786,0.491,0.970,0.715,0.317,0.555,0.512,��,13.3,��
2024/06/12,15:40,0.512,0.785,0.492,0.971,0.715,0.318,0.556,0.511,��,12.7,��
2024/06/12,15:50,0.511,0.784,0.492,0.971,0.715,0.318,0.557,0.513,��쓌,14.1,��
2024/06/12,16:00,0.513,0.783,0.492,0.971,0.714,0.319,0.555,0.512,��,12.8,��
2024/06/12,16:10,0.511,0.785,0.492,0.973,0.716,0.318,0.556,0.512,��,11.3,��
2024/06/12,16:20,0.512,0.786,0.492,0.974,0.714,0.318,0.556,0.512,��,11.3,��
2024/06/12,16:30,0.512,0.785,0.492,0.970,0.712,0.320,0.556,0.510,��,12.7,��
2024/06/12,16:40,0.511,0.782,0.491,0.972,0.713,0.319,0.554,0.512,��,12.0,��
2024/06/12,16:50,0.512,0.782,0.492,0.973,0.713,0.318,0.556,0.512,��,12.4,��
2024/06/12,17:00,0.511,0.784,0.491,0.974,0.715,0.318,0.554,0.512,��,11.6,��
2024/06/12,17:10,0.512,0.784,0.492,0.973,0.714,0.316,0.555,0.513,��,11.3,��
2024/06/12,17:20,0.513,0.784,0.492,0.972,0.715,0.316,0.555,0.512,��,11.4,��
2024/06/12,17:30,0.512,0.784,0.493,0.976,0.716,0.319,0.555,0.511,��,11.3,��
2024/06/12,17:40,0.510,0.784,0.492,0.974,0.714,0.319,0.555,0.514,��,11.0,��
2024/06/12,17:50,0.512,0.784,0.492,0.975,0.715,0.318,0.554,0.515,��쓌,11.6,��
2024/06/12,18:00,0.512,0.785,0.492,0.974,0.714,0.319,0.556,0.514,��,9.9,��
2024/06/12,18:10,0.512,0.788,0.493,0.974,0.715,0.319,0.556,0.514,��,10.7,��
2024/06/12,18:20,0.511,0.787,0.492,0.974,0.717,0.319,0.553,0.514,��,10.9,��
2024/06/12,18:30,0.511,0.786,0.493,0.972,0.715,0.319,0.555,0.515,��,9.5,��
2024/06/12,18:40,0.511,0.785,0.495,0.972,0.718,0.318,0.556,0.513,��,9.2,��
2024/06/12,18:50,0.509,0.786,0.493,0.971,0.716,0.319,0.555,0.514,��,9.5,��
2024/06/12,19:00,0.510,0.788,0.493,0.975,0.717,0.319,0.556,0.514,��,9.2,��
2024/06/12,19:10,0.511,0.786,0.494,0.973,0.716,0.321,0.557,0.515,��,9.0,��
2024/06/12,19:20,0.511,0.786,0.492,0.975,0.716,0.320,0.557,0.514,��,9.7,��
2024/06/12,19:30,0.509,0.788,0.494,0.973,0.716,0.319,0.557,0.515,��,9.7,��
2024/06/12,19:40,0.511,0.785,0.492,0.976,0.715,0.319,0.555,0.515,��,9.1,��
2024/06/12,19:50,0.510,0.786,0.493,0.975,0.716,0.321,0.555,0.514,��,8.4,��
2024/06/12,20:00,0.510,0.787,0.492,0.978,0.716,0.319,0.557,0.514,��,8.8,��
2024/06/12,20:10,0.511,0.787,0.493,0.973,0.715,0.320,0.555,0.515,��,7.8,��
2024/06/12,20:20,0.509,0.787,0.492,0.976,0.717,0.319,0.557,0.514,��,6.8,��
2024/06/12,20:30,0.510,0.787,0.493,0.977,0.716,0.321,0.558,0.512,��,6.2,��
2024/06/12,20:40,0.511,0.787,0.493,0.975,0.717,0.319,0.555,0.514,��,7.8,��
2024/06/12,20:50,0.512,0.788,0.491,0.976,0.718,0.320,0.555,0.515,��,8.1,��
2024/06/12,21:00,0.510,0.787,0.492,0.977,0.716,0.318,0.558,0.515,��,8.8,��
2024/06/12,21:10,0.511,0.788,0.493,0.974,0.716,0.319,0.557,0.514,��,8.9,��
2024/06/12,21:20,0.510,0.786,0.492,0.975,0.715,0.319,0.558,0.515,��,9.7,��
2024/06/12,21:30,0.511,0.786,0.494,0.976,0.717,0.318,0.556,0.514,��,9.8,��
2024/06/12,21:40,0.510,0.788,0.492,0.975,0.715,0.320,0.558,0.513,��,9.5,��
2024/06/12,21:50,0.512,0.786,0.492,0.975,0.715,0.319,0.557,0.514,��,9.0,��
2024/06/12,22:00,0.511,0.786,0.494,0.974,0.715,0.319,0.556,0.513,��,9.0,��
2024/06/12,22:10,0.511,0.787,0.492,0.974,0.716,0.319,0.557,0.514,��,7.4,��
2024/06/12,22:20,0.512,0.786,0.494,0.974,0.715,0.320,0.558,0.514,��,7.5,��
2024/06/12,22:30,0.510,0.786,0.493,0.974,0.714,0.318,0.557,0.514,��,7.7,��
2024/06/12,22:40,0.509,0.785,0.494,0.975,0.716,0.319,0.556,0.514,��,7.5,��
2024/06/12,22:50,0.511,0.788,0.495,0.974,0.717,0.319,0.557,0.515,��,5.2,��
2024/06/12,23:00,0.511,0.787,0.493,0.974,0.717,0.320,0.556,0.515,��,4.6,��
2024/06/12,23:10,0.511,0.787,0.493,0.976,0.717,0.319,0.555,0.514,��,4.6,��
2024/06/12,23:20,0.511,0.786,0.494,0.977,0.716,0.319,0.556,0.515,��,5.0,��
2024/06/12,23:30,0.513,0.786,0.492,0.976,0.715,0.319,0.556,0.513,��,5.4,��
2024/06/12,23:40,0.512,0.786,0.492,0.975,0.716,0.320,0.556,0.514,��,5.7,��
2024/06/12,23:50,0.515,0.787,0.492,0.975,0.716,0.320,0.556,0.515,��,5.4,��
